Location: Bon Acre
(42.6442°N, 73.5758°W)
Time: 02:38:50
(UTC+00:00)

SL-08 R/B - Pass Details

Date: 15 March 2026
Orbit: 946 x 992 km, 83.0° (Epoch: 13 April)

Event Time Altitude Azimuth Distance (km) Brightness Sun altitude
Exits shadow 02:26:05 43° 327° (NNW) 1,310 5.4 -36.5°
Drops below altitude 10° 02:30:30 10° 359° (N) 2,675 7.2 -37.1°
Sets 02:33:04 0° 4° (N) 3,624 7.9 -37.5°
